Miscellaneous Local Product
Issued by NWS Hastings, NE

Home | Current Version | Previous Version | Graphics & Text | Print | Product List | Glossary On
Versions: 1 2 3 4 5 6 7 8 9 10 11 12 13 14 15 16 17 18 19 20 21 22 23 24 25 26 27 28 29 30 31 32 33 34 35 36 37 38 39 40 41 42 43 44 45 46 47 48 49 50
000
AXUS43 KGID 290602
MISGRI

GID CWA HOURLY WEATHER ROUNDUP
NATIONAL WEATHER SERVICE HASTINGS NE
100 AM CDT MON JUN 29 2015

NOTE: "FAIR" INDICATES FEW OR NO CLOUDS BELOW 12,000 FEET WITH NO
SIGNIFICANT WEATHER AND/OR OBSTRUCTIONS TO VISIBILITY.

...SOUTH CENTRAL NEBRASKA...

CITY           SKY/WX    TMP DP  RH WIND       PRES   REMARKS
GRAND ISLAND   CLEAR     61  55  81 W6        30.00S
HASTINGS       CLEAR     64  55  72 N3        29.99F
KEARNEY        CLEAR     63  54  72 NW6       30.02R
ORD            CLEAR     59  55  87 NW5       30.00S
YORK           PTCLDY    64  57  77 NW7       29.97F
AURORA         CLEAR     64  58  81 N7        29.99S
LEXINGTON      CLEAR     63  57  81 W3        30.04S
HOLDREGE       CLEAR     62  54  74 CALM      30.02S
HEBRON         CLEAR     65  56  70 NW6       29.96S

...NEBRASKA PANHANDLE...

CITY           SKY/WX    TMP DP  RH WIND       PRES   REMARKS
CHADRON        CLEAR     61  59  93 SW5       30.08S
ALLIANCE       CLEAR     61  57  87 S3        30.12S
SCOTTSBLUFF    PTCLDY    66  57  72 E5        30.14R
SIDNEY         CLEAR     61  55  81 S7        30.17R

...WESTERN AND NORTH CENTRAL NEBRASKA...

CITY           SKY/WX    TMP DP  RH WIND       PRES   REMARKS
VALENTINE      CLEAR     61  58  90 NW3       30.05R
AINSWORTH      CLEAR     63  54  73 CALM      30.04S
ONEILL         PTCLDY    63  57  82 W3        30.00S
BROKEN BOW     CLEAR     58  55  90 CALM      30.04S
IMPERIAL       CLEAR     64  58  80 CALM      30.10R
NORTH PLATTE   CLEAR     62  58  86 CALM      30.07R
MCCOOK         PTCLDY    69  57  65 CALM      30.05R

...EASTERN NEBRASKA...

CITY           SKY/WX    TMP DP  RH WIND       PRES   REMARKS
NORFOLK        CLEAR     64  59  83 CALM      29.95S
SO SIOUX CITY  CLEAR     68  58  70 CALM      29.90S
TEKAMAH        CLEAR     66  59  78 W7        29.90S
COLUMBUS       CLEAR     64  55  72 W5        29.94R
ALBION         CLEAR     62  56  80 NW5       29.99S
OMAHA EPPLEY   CLEAR     70  60  70 CALM      29.90R
OFFUTT AFB     CLEAR     65  60  82 NW6       29.90R
MILLARD        CLEAR     71  60  70 CALM      29.91S
LINCOLN        CLEAR     69  59  70 N7        29.94S
NEBRASKA CITY  CLEAR     69  54  57 NW8       29.91R
BEATRICE       CLEAR     65  59  82 CALM      29.94S
FALLS CITY     CLEAR     68  60  75 NW7       29.89R

...NORTHERN KANSAS...

CITY           SKY/WX    TMP DP  RH WIND       PRES   REMARKS
GOODLAND       CLEAR     65  53  65 S9        30.11F
HILL CITY      PTCLDY    66  54  65 NE3       30.02R
NORTON         CLEAR     64  54  68 CALM      30.03S
PHILLIPSBURG   CLEAR     72  55  56 CALM      30.01S
SMITH CENTER   CLEAR     66  52  59 N5        30.00R
HAYS           CLEAR     70  52  52 NE10      30.00R
RUSSELL        CLEAR     68  52  56 NE10      29.98R
CONCORDIA      CLEAR     68  54  60 N7        29.96S
SALINA         CLEAR     71  56  58 NW5       29.95S
TOPEKA         CLEAR     71  60  68 W6        29.89S



USA.gov is the U.S. government's official web portal to all federal, state and local government web resources and services.